Location: Unspecified
(48.8656°N, 0.0000°E)
Time: 02:10:29
(UTC+00:00)

Vanguard 1 - Pass Details

Date: 17 June 2019
Orbit: 653 x 3830 km, 34.3° (Epoch: 22 July)

Event Time Altitude Azimuth Distance (km) Brightness Sun altitude
Rises 08:52:23 0° 260° (W) 4,263 13.0 45.2°
Reaches altitude 10° 08:57:48 10° 231° (SW) 2,689 12.2 46.1°
Maximum altitude 08:59:53 12° 211° (SSW) 2,366 12.1 46.4°
Drops below altitude 10° 09:01:44 10° 190° (S) 2,335 12.2 46.7°
Sets 09:05:32 0° 156° (SSE) 3,026 13.0 47.3°
